AZU2423 SBCF-SBSG

Flight info

Callsign AZU2423
Flight time N/A
Altitude 37000
Route ILPIR UZ72 EDNES UN866 DIMOD DCT TOSAD
Aircraft A20N/M-SDE2E3FGHIRWXY/LB1

Departure

Time N/A
Airport Tancredo Neves International Airport (SBCF)

Arrival

Time 2026-05-08 01:59
Airport Rio Grande do Norte/São Gonçalo do Amarante–Governador Aluízio Alves International Airport (SBSG)
Time Latitude Longitude Altitude Speed Heading
2026-05-08 01:46 -5.75509 -35.54196 3994 ft 178 kts 14°
2026-05-08 01:46 -5.74296 -35.54016 4028 ft 186 kts 14°
2026-05-08 01:47 -5.72907 -35.53796 4029 ft 213 kts 12°
2026-05-08 01:47 -5.71396 -35.53976 4024 ft 226 kts 338°
2026-05-08 01:47 -5.70182 -35.54992 4021 ft 233 kts 306°
2026-05-08 01:48 -5.68651 -35.57859 4010 ft 234 kts 296°
2026-05-08 01:48 -5.67942 -35.59336 4015 ft 235 kts 292°
2026-05-08 01:48 -5.67723 -35.60936 4014 ft 233 kts 257°
2026-05-08 01:48 -5.68377 -35.62373 4022 ft 225 kts 223°
2026-05-08 01:49 -5.69648 -35.63193 4028 ft 215 kts 195°
2026-05-08 01:49 -5.71076 -35.63633 4017 ft 214 kts 190°
2026-05-08 01:49 -5.72518 -35.64018 4021 ft 214 kts 189°
2026-05-08 01:49 -5.73957 -35.64392 4017 ft 213 kts 189°
2026-05-08 01:50 -5.75395 -35.64769 4016 ft 213 kts 189°
2026-05-08 01:50 -5.76818 -35.65142 4024 ft 215 kts 189°
2026-05-08 01:50 -5.78272 -35.65523 4024 ft 215 kts 189°
2026-05-08 01:50 -5.79719 -35.65904 4020 ft 214 kts 189°
2026-05-08 01:51 -5.81158 -35.66258 3905 ft 210 kts 181°
2026-05-08 01:51 -5.82530 -35.66016 3679 ft 198 kts 146°
2026-05-08 01:51 -5.83425 -35.65020 3408 ft 194 kts 112°
2026-05-08 01:51 -5.83619 -35.63721 3230 ft 192 kts 83°
2026-05-08 01:52 -5.83103 -35.62508 3135 ft 192 kts 54°
2026-05-08 01:52 -5.82119 -35.61591 3049 ft 192 kts 46°
2026-05-08 01:52 -5.81113 -35.60708 3015 ft 192 kts 46°
2026-05-08 01:52 -5.80112 -35.59828 2844 ft 191 kts 46°
2026-05-08 01:53 -5.79108 -35.58944 2653 ft 189 kts 46°
2026-05-08 01:53 -5.78145 -35.58100 2523 ft 178 kts 46°
2026-05-08 01:53 -5.77232 -35.57300 2403 ft 170 kts 47°
2026-05-08 01:53 -5.76356 -35.56532 2275 ft 164 kts 46°
2026-05-08 01:54 -5.75511 -35.55790 2148 ft 162 kts 47°
2026-05-08 01:54 -5.74754 -35.54966 2029 ft 160 kts 63°
2026-05-08 01:54 -5.74344 -35.53951 1923 ft 156 kts 83°
2026-05-08 01:54 -5.74335 -35.52880 1798 ft 153 kts 103°
2026-05-08 01:55 -5.74509 -35.51823 1677 ft 153 kts 102°
2026-05-08 01:55 -5.74679 -35.50780 1641 ft 147 kts 102°
2026-05-08 01:55 -5.74841 -35.49787 1640 ft 141 kts 101°
2026-05-08 01:55 -5.74999 -35.48819 1633 ft 140 kts 101°
2026-05-08 01:56 -5.75157 -35.47853 1632 ft 139 kts 101°
2026-05-08 01:56 -5.75313 -35.46896 1633 ft 139 kts 101°
2026-05-08 01:56 -5.75467 -35.45951 1631 ft 139 kts 102°
2026-05-08 01:56 -5.75624 -35.44989 1557 ft 139 kts 101°
2026-05-08 01:57 -5.75781 -35.44029 1414 ft 139 kts 101°
2026-05-08 01:57 -5.75937 -35.43070 1258 ft 139 kts 101°
2026-05-08 01:57 -5.76092 -35.42115 1081 ft 138 kts 100°
2026-05-08 01:57 -5.76249 -35.41156 923 ft 140 kts 100°
2026-05-08 01:58 -5.76405 -35.40197 787 ft 138 kts 99°
2026-05-08 01:58 -5.76547 -35.39228 606 ft 141 kts 99°
2026-05-08 01:58 -5.76720 -35.38248 371 ft 142 kts 99°
2026-05-08 01:58 -5.76873 -35.37292 276 ft 130 kts 99°
2026-05-08 01:59 -5.77004 -35.36504 274 ft 92 kts 99°
2026-05-08 01:59 -5.77081 -35.36039 274 ft 43 kts 99°
2026-05-08 01:59 -5.77114 -35.35841 275 ft 30 kts 99°
2026-05-08 01:59 -5.77148 -35.35632 276 ft 30 kts 100°
2026-05-08 02:00 -5.77181 -35.35427 274 ft 28 kts 98°
2026-05-08 02:00 -5.77123 -35.35323 277 ft 13 kts 15°
2026-05-08 02:00 -5.77034 -35.35325 276 ft 13 kts 321°
2026-05-08 02:00 -5.76998 -35.35402 277 ft 12 kts 272°
2026-05-08 02:01 -5.76994 -35.35479 274 ft 11 kts 277°
2026-05-08 02:01 -5.76983 -35.35551 274 ft 11 kts 279°
2026-05-08 02:01 -5.76968 -35.35644 274 ft 9 kts 279°
2026-05-08 02:01 -5.76958 -35.35703 274 ft 8 kts 279°
2026-05-08 02:02 -5.76950 -35.35756 274 ft 7 kts 279°
2026-05-08 02:02 -5.76942 -35.35804 276 ft 7 kts 279°
2026-05-08 02:02 -5.76935 -35.35847 274 ft 6 kts 279°
2026-05-08 02:02 -5.76923 -35.35913 274 ft 14 kts 281°
2026-05-08 02:03 -5.76904 -35.36033 274 ft 20 kts 279°
2026-05-08 02:03 -5.76882 -35.36175 274 ft 21 kts 279°
2026-05-08 02:03 -5.76857 -35.36318 274 ft 21 kts 281°
2026-05-08 02:03 -5.76833 -35.36465 274 ft 22 kts 279°
2026-05-08 02:04 -5.76809 -35.36615 274 ft 22 kts 279°
2026-05-08 02:04 -5.76783 -35.36770 274 ft 23 kts 279°
2026-05-08 02:04 -5.76757 -35.36930 274 ft 24 kts 278°
2026-05-08 02:04 -5.76731 -35.37094 274 ft 24 kts 278°
2026-05-08 02:05 -5.76693 -35.37241 274 ft 18 kts 323°
2026-05-08 02:05 -5.76579 -35.37242 274 ft 13 kts
2026-05-08 02:05 -5.76519 -35.37284 274 ft 10 kts 301°
2026-05-08 02:05 -5.76461 -35.37289 274 ft 9 kts
2026-05-08 02:06 -5.76428 -35.37284 274 ft 0 kts